Regional Weather Roundup
Issued by NWS Midland/Odessa, TX

Skip options and go directly to product.
Home | Oldest Version | Previous Version | Current Version | All | Text Only | Save Text | Print | Product List | Glossary On

Skip product version selection by date and time.   
702
ASUS44 KMAF 060110
RWRMAF
MIDLAND AREA WEATHER ROUNDUP
NATIONAL WEATHER SERVICE MIDLAND TX
800 PM CDT SUN JUL 05 2015

...IN SOUTHWEST TEXAS AND SOUTHEAST NEW MEXICO...

CITY           SKY/WX    TMP DP  RH WIND       PRES   REMARKS
ALPINE         CLOUDY    78  61  55 S16G23    30.10S
ANDREWS        FAIR      88  64  44 S15G24    29.94R
ARTESIA        CLOUDY    90  61  37 SW13      29.93R
BIG SPRING     PTSUNNY   92  64  38 SE18G25   29.95R
CARLSBAD       CLOUDY    89  59  36 SW9       29.90R
DRYDEN           N/A     88  66  48 S14       29.94R
FORT STOCKTON  PTSUNNY   84  62  47 S15G24    29.94R
GUAD PASS      CLOUDY    82  57  42 SW14      30.10S
HOBBS          MOSUNNY   91  50  24 SE8       29.95R
MARFA          CLOUDY   N/A N/A N/A S8        30.10R
MIDLAND AIRPK  MOSUNNY   91  63  38 S17G23    29.93R
MIDLAND INTL   SUNNY     90  65  43 S21G28    29.93R
ODESSA         SUNNY     89  64  43 S18G25    29.94R
PECOS          MOSUNNY   91  63  40 SE13      29.88R
PRESIDIO       MOCLDY    85  64  48 MISG      29.95R THUNDER
SEMINOLE       MOSUNNY   90  58  33 SE14G20   29.94R
SNYDER         CLEAR     87  67  51 S13       29.93S
WINK           MOSUNNY   91  63  39 SE15      29.89R
$$
...OTHER STATIONS IN TEXAS...

CITY           SKY/WX    TMP DP  RH WIND       PRES   REMARKS
ABILENE        CLEAR     89  62  40 SE18G25   29.92S
AMARILLO       MOSUNNY   86  57  37 S14       29.94S
AUSTIN         PTCLDY    85  71  63 SE15      29.94S
BROWNSVILLE    MOCLDY    84  78  82 SE16G30   29.95S
CORPUS CHRISTI PTCLDY    84  76  76 SE22G30   29.95R
DALLAS FTW     PTCLDY    89  68  49 S15       29.92R
DEL RIO        CLEAR     89  68  49 SE14      29.89S
EL PASO        MOSUNNY   90  57  32 W18G24    29.95S
HOUSTON INT    PTCLDY    87  73  62 S9        30.00R
LUBBOCK        PTSUNNY   89  62  40 S17       29.93F
SAN ANGELO     CLEAR     89  63  41 S13       29.93R
SAN ANTONIO    PTCLDY    86  72  62 SE21      29.95R
WACO           PTCLDY    88  69  53 S18       29.93S
WICHITA FALLS  NOT AVBL
$$
...OTHER LOCATIONS IN NEW MEXICO...

CITY           SKY/WX    TMP DP  RH WIND       PRES   REMARKS
ALAMAGORDO     PTSUNNY   90  54  29 S12       29.97S
ALBUQUERQUE    CLOUDY    75  60  59 W18       30.09R
CANNON AFB     PTSUNNY   85  60  42 SE12      29.97R
CLOVIS         MOSUNNY   84  55  37 SE16        N/A
HOLLOMAN AFB   PTSUNNY   91  56  31 N10       29.94S
ROSWELL        PTSUNNY   90  56  31 SW6       29.91F
RUIDOSO        TSTM      66  55  68 NE3       30.20S
SANTA FE       CLOUDY    77  53  43 W17G25    30.11R
TRUTH OR CONSE LGT RAIN  79  60  52 NW18      30.02S
TUCUMCARI      MOSUNNY   94  52  24 SW18      29.90R
$$

USA.gov is the U.S. government's official web portal to all federal, state and local government web resources and services.